When you browse on this site, cookies collect data to enhance your experience and personalize the content and advertising you see.
Visit our Privacy Policy to learn more. By continuing to use the site, you agree to this use of cookies and data.

Previsão horária em Yerevan

Hoje, 15 Agosto, Sábado

Tempo Temperatura Precipitação Vento Pressão Humidade
00:00 +23°C° 0.1 mm 2 m/s 687 mmHg 62%
01:00 +21°C° 0 mm 3 m/s 687 mmHg 61%
02:00 +21°C° 0 mm 3 m/s 686 mmHg 61%
03:00 +21°C° 0 mm 3 m/s 686 mmHg 60%
04:00 +20°C° 0 mm 3 m/s 686 mmHg 60%
05:00 +20°C° 0 mm 3 m/s 687 mmHg 60%
06:00 +20°C° 0 mm 3 m/s 687 mmHg 61%
07:00 +22°C° 0 mm 3 m/s 687 mmHg 55%
08:00 +25°C° 0 mm 3 m/s 687 mmHg 49%
09:00 +27°C° 0 mm 3 m/s 687 mmHg 43%
10:00 +28°C° 0 mm 3 m/s 687 mmHg 40%
11:00 +29°C° 0 mm 2 m/s 687 mmHg 37%
12:00 +30°C° 0 mm 2 m/s 687 mmHg 34%
13:00 +31°C° 0 mm 2 m/s 687 mmHg 33%
14:00 +32°C° 0 mm 2 m/s 687 mmHg 32%
15:00 +33°C° 0 mm 3 m/s 687 mmHg 30%
16:00 +32°C° 0 mm 4 m/s 687 mmHg 33%
17:00 +30°C° 0 mm 5 m/s 687 mmHg 35%
18:00 +29°C° 0 mm 6 m/s 687 mmHg 37%
19:00 +28°C° 0 mm 6 m/s 687 mmHg 40%
20:00 +27°C° 0 mm 5 m/s 687 mmHg 42%
21:00 +25°C° 0 mm 4 m/s 688 mmHg 45%
22:00 +25°C° 0 mm 3 m/s 688 mmHg 45%
23:00 +24°C° 0 mm 2 m/s 688 mmHg 46%

Amanhã, 16 Agosto, Domingo

Tempo Temperatura Precipitação Vento Pressão Humidade
00:00 +24°C° 0 mm 2 m/s 688 mmHg 46%
01:00 +23°C° 0 mm 2 m/s 688 mmHg 47%
02:00 +21°C° 0 mm 2 m/s 688 mmHg 48%
03:00 +21°C° 0 mm 2 m/s 687 mmHg 49%
04:00 +21°C° 0 mm 2 m/s 687 mmHg 50%
05:00 +20°C° 0 mm 2 m/s 687 mmHg 52%
06:00 +20°C° 0 mm 2 m/s 687 mmHg 53%
07:00 +23°C° 0 mm 2 m/s 687 mmHg 49%
08:00 +24°C° 0 mm 1 m/s 688 mmHg 45%
09:00 +26°C° 0 mm 1 m/s 688 mmHg 41%
10:00 +27°C° 0 mm 2 m/s 688 mmHg 39%
11:00 +29°C° 0 mm 2 m/s 688 mmHg 36%
12:00 +30°C° 0 mm 2 m/s 687 mmHg 34%
13:00 +31°C° 0 mm 3 m/s 687 mmHg 33%
14:00 +33°C° 0 mm 4 m/s 687 mmHg 31%
15:00 +34°C° 0 mm 4 m/s 687 mmHg 30%
16:00 +33°C° 0.1 mm 4 m/s 687 mmHg 32%
17:00 +32°C° 0.1 mm 4 m/s 686 mmHg 35%
18:00 +30°C° 0.1 mm 4 m/s 686 mmHg 38%
19:00 +28°C° 0.8 mm 4 m/s 686 mmHg 46%
20:00 +26°C° 0.8 mm 3 m/s 686 mmHg 55%
21:00 +24°C° 0.8 mm 2 m/s 686 mmHg 63%
22:00 +23°C° 1.4 mm 2 m/s 686 mmHg 67%
23:00 +21°C° 1.4 mm 2 m/s 686 mmHg 72%

Depois de amanhã, 17 Agosto, Segunda-feira

Tempo Temperatura Precipitação Vento Pressão Humidade
00:00 +21°C° 1.4 mm 2 m/s 686 mmHg 76%
01:00 +20°C° 0.9 mm 2 m/s 686 mmHg 77%
02:00 +20°C° 0.9 mm 2 m/s 686 mmHg 78%
03:00 +21°C° 0.9 mm 1 m/s 686 mmHg 79%
04:00 +21°C° 0.3 mm 1 m/s 686 mmHg 77%
05:00 +21°C° 0.3 mm 1 m/s 686 mmHg 75%
06:00 +22°C° 0.3 mm 1 m/s 687 mmHg 73%
07:00 +23°C° 0 mm 1 m/s 687 mmHg 68%
08:00 +24°C° 0 mm 1 m/s 687 mmHg 62%
09:00 +25°C° 0 mm 1 m/s 688 mmHg 56%
10:00 +26°C° 0 mm 1 m/s 688 mmHg 52%
11:00 +28°C° 0 mm 1 m/s 688 mmHg 48%
12:00 +29°C° 0 mm 1 m/s 688 mmHg 43%
13:00 +30°C° 0 mm 2 m/s 688 mmHg 41%
14:00 +30°C° 0 mm 2 m/s 688 mmHg 39%
15:00 +31°C° 0 mm 3 m/s 688 mmHg 36%
16:00 +30°C° 0 mm 4 m/s 688 mmHg 38%
17:00 +29°C° 0 mm 5 m/s 688 mmHg 40%
18:00 +28°C° 0 mm 6 m/s 688 mmHg 42%
19:00 +27°C° 0.1 mm 5 m/s 688 mmHg 45%
20:00 +26°C° 0.1 mm 5 m/s 689 mmHg 49%
21:00 +23°C° 0.1 mm 4 m/s 689 mmHg 52%
22:00 +22°C° 0 mm 3 m/s 689 mmHg 53%
23:00 +23°C° 0 mm 2 m/s 689 mmHg 55%

18 Agosto, Terça-feira

Tempo Temperatura Precipitação Vento Pressão Humidade
00:00 +21°C° 0 mm 2 m/s 689 mmHg 57%
01:00 +21°C° 0 mm 2 m/s 689 mmHg 58%
02:00 +20°C° 0 mm 2 m/s 689 mmHg 60%
03:00 +21°C° 0 mm 1 m/s 689 mmHg 62%
04:00 +21°C° 0 mm 1 m/s 689 mmHg 62%
05:00 +21°C° 0 mm 1 m/s 689 mmHg 63%
06:00 +21°C° 0 mm 1 m/s 689 mmHg 63%
07:00 +22°C° 0 mm 1 m/s 689 mmHg 58%
08:00 +24°C° 0 mm 1 m/s 689 mmHg 53%
09:00 +25°C° 0 mm 1 m/s 689 mmHg 49%
10:00 +26°C° 0 mm 1 m/s 689 mmHg 45%
11:00 +28°C° 0 mm 2 m/s 689 mmHg 42%
12:00 +29°C° 0 mm 2 m/s 689 mmHg 39%
13:00 +30°C° 0 mm 2 m/s 688 mmHg 37%
14:00 +31°C° 0 mm 2 m/s 688 mmHg 35%
15:00 +31°C° 0 mm 2 m/s 688 mmHg 33%
16:00 +31°C° 0 mm 3 m/s 688 mmHg 35%
17:00 +30°C° 0 mm 3 m/s 687 mmHg 37%
18:00 +30°C° 0 mm 4 m/s 687 mmHg 40%
19:00 +28°C° 0 mm 3 m/s 687 mmHg 44%
20:00 +26°C° 0 mm 3 m/s 688 mmHg 49%
21:00 +25°C° 0 mm 3 m/s 688 mmHg 53%
22:00 +24°C° 0 mm 2 m/s 688 mmHg 55%
23:00 +23°C° 0 mm 2 m/s 687 mmHg 57%

19 Agosto, Quarta-feira

Tempo Temperatura Precipitação Vento Pressão Humidade
00:00 +23°C° 0 mm 1 m/s 687 mmHg 59%
01:00 +22°C° 0 mm 1 m/s 687 mmHg 60%
02:00 +21°C° 0 mm 2 m/s 687 mmHg 62%
03:00 +20°C° 0 mm 2 m/s 687 mmHg 63%
04:00 +20°C° 0 mm 2 m/s 687 mmHg 64%
05:00 +21°C° 0 mm 1 m/s 687 mmHg 64%
06:00 +21°C° 0 mm 1 m/s 687 mmHg 65%
07:00 +23°C° 0 mm 1 m/s 687 mmHg 59%
08:00 +24°C° 0 mm 1 m/s 687 mmHg 53%
09:00 +26°C° 0 mm 1 m/s 687 mmHg 47%
10:00 +28°C° 0 mm 1 m/s 687 mmHg 44%
11:00 +29°C° 0 mm 1 m/s 687 mmHg 40%
12:00 +30°C° 0 mm 1 m/s 687 mmHg 37%
13:00 +31°C° 0 mm 1 m/s 687 mmHg 35%
14:00 +32°C° 0 mm 1 m/s 686 mmHg 33%
15:00 +34°C° 0 mm 2 m/s 686 mmHg 31%
16:00 +32°C° 0 mm 2 m/s 686 mmHg 33%
17:00 +31°C° 0 mm 2 m/s 686 mmHg 34%
18:00 +31°C° 0 mm 3 m/s 686 mmHg 36%
19:00 +29°C° 0.1 mm 3 m/s 687 mmHg 41%
20:00 +27°C° 0.1 mm 3 m/s 687 mmHg 46%
21:00 +25°C° 0.1 mm 3 m/s 687 mmHg 51%
22:00 +25°C° 0.1 mm 3 m/s 687 mmHg 54%
23:00 +24°C° 0.1 mm 2 m/s 687 mmHg 56%

20 Agosto, Quinta-feira

Tempo Temperatura Precipitação Vento Pressão Humidade
00:00 +23°C° 0.1 mm 2 m/s 687 mmHg 58%
01:00 +23°C° 0 mm 1 m/s 687 mmHg 59%
02:00 +22°C° 0 mm 1 m/s 687 mmHg 61%
03:00 +22°C° 0 mm 1 m/s 687 mmHg 62%
04:00 +22°C° 0 mm 1 m/s 687 mmHg 62%
05:00 +22°C° 0 mm 1 m/s 687 mmHg 63%
06:00 +22°C° 0 mm 1 m/s 687 mmHg 63%
07:00 +23°C° 0 mm 1 m/s 687 mmHg 57%
08:00 +25°C° 0 mm 1 m/s 688 mmHg 51%
09:00 +27°C° 0 mm 1 m/s 688 mmHg 45%
10:00 +28°C° 0 mm 1 m/s 688 mmHg 42%
11:00 +29°C° 0 mm 2 m/s 688 mmHg 39%
12:00 +31°C° 0 mm 2 m/s 688 mmHg 35%
13:00 +32°C° 0 mm 2 m/s 687 mmHg 33%
14:00 +34°C° 0 mm 2 m/s 687 mmHg 30%
15:00 +35°C° 0 mm 2 m/s 687 mmHg 27%
16:00 +34°C° 0 mm 2 m/s 687 mmHg 29%
17:00 +34°C° 0 mm 3 m/s 687 mmHg 30%
18:00 +33°C° 0 mm 3 m/s 687 mmHg 32%
19:00 +30°C° 0 mm 3 m/s 687 mmHg 37%
20:00 +29°C° 0 mm 3 m/s 687 mmHg 42%
21:00 +27°C° 0 mm 4 m/s 688 mmHg 47%
22:00 +26°C° 0 mm 3 m/s 687 mmHg 49%
23:00 +25°C° 0 mm 2 m/s 687 mmHg 51%
Mostrar mais